Вернуться в каталог

STARLINK-31166

АктивенСвязьVLEO
NORAD 58789·PAYLOAD·🇺🇸 United States

Запущен Jan 15, 2024 с Cape Canaveral Space Force Station

Loading…

Ближайшие Пролёты (ближайшие 24 часа)

TLE

СвежийSource: CelesTrak SupGP

Эпоха: Sep 14, 2026, 22:25 UTC

1 58789C 24012C   26257.93451389  .00022384  00000+0  81143-3 0  2575
2 58789  43.0021 176.3509 0001148 276.4887 319.2876 15.27540589    19

Отслеживайте STARLINK-31166 в реальном времени с AllMySat

Download on the App Store